Time,TemperatureF,DewpointF,PressureIn,WindDirection,WindDirectionDegrees,WindSpeedMPH,WindSpeedGustMPH,Humidity,HourlyPrecipIn,Conditions,Clouds,dailyrainin,SolarRadiationWatts/m^2,SoftwareType,DateUTC
2013-03-15 00:00:00,43.2,26.3,30.02,NW,323,0.0,5.0,51,0.00,,SKC,0.00,0.00,VWS V14.01,2013-03-15 06:00:00,
2013-03-15 00:08:00,42.9,26.0,29.99,NW,324,0.0,1.0,51,0.00,,SKC,0.00,0.00,VWS V14.01,2013-03-15 06:08:00,
2013-03-15 00:14:00,42.5,26.1,29.99,NNW,341,0.0,3.0,52,0.00,,SKC,0.00,0.00,VWS V14.01,2013-03-15 06:14:00,
2013-03-15 00:15:00,44.3,26.4,30.00,SE,134,3.0,11.0,49,0.00,,SKC,0.00,0.00,VWS V14.01,2013-03-15 06:15:00,
2013-03-15 00:20:00,41.9,26.0,29.99,SE,134,1.0,3.0,53,0.00,,SKC,0.00,0.00,VWS V14.01,2013-03-15 06:20:00,
2013-03-15 00:28:00,41.4,26.0,29.99,WSW,248,4.0,4.0,54,0.00,,SKC,0.00,0.00,VWS V14.01,2013-03-15 06:28:00,
2013-03-15 00:30:00,44.0,26.1,30.00,SE,146,5.0,10.0,49,0.00,,SKC,0.00,0.00,VWS V14.01,2013-03-15 06:30:00,
2013-03-15 00:34:00,41.1,25.7,29.99,WSW,244,1.0,2.0,54,0.00,,SKC,0.00,0.00,VWS V14.01,2013-03-15 06:34:00,
2013-03-15 00:40:00,41.0,25.6,29.99,WSW,238,0.0,3.0,54,0.00,,SKC,0.00,0.00,VWS V14.01,2013-03-15 06:40:00,
2013-03-15 00:45:00,43.8,26.4,30.01,South,189,0.0,9.0,50,0.00,,SKC,0.00,0.00,VWS V14.01,2013-03-15 06:45:00,
2013-03-15 00:46:00,40.8,25.9,29.99,WSW,252,7.0,7.0,55,0.00,,SKC,0.00,0.00,VWS V14.01,2013-03-15 06:46:00,
2013-03-15 00:51:00,40.8,25.5,29.98,SSW,210,2.0,10.0,54,0.00,,SKC,0.00,0.00,VWS V14.01,2013-03-15 06:51:00,
2013-03-15 00:57:00,41.1,25.7,29.98,SSW,196,6.0,10.0,54,0.00,,SKC,0.00,0.00,VWS V14.01,2013-03-15 06:57:00,
2013-03-15 01:00:00,43.2,26.3,30.02,NW,324,0.0,5.0,51,0.00,,SKC,0.00,0.00,VWS V14.01,2013-03-15 07:00:00,
2013-03-15 01:03:00,41.4,25.6,29.95,SE,128,2.0,6.0,53,0.00,,SKC,0.00,0.00,VWS V14.01,2013-03-15 07:03:00,
2013-03-15 01:09:00,41.8,25.9,29.94,ESE,121,2.0,9.0,53,0.00,,SKC,0.00,0.00,VWS V14.01,2013-03-15 07:09:00,
2013-03-15 01:15:00,41.9,25.6,29.94,NNE,31,0.0,9.0,52,0.00,,SKC,0.00,0.00,VWS V14.01,2013-03-15 07:15:00,
2013-03-15 01:21:00,41.5,26.1,29.95,NE,45,2.0,10.0,54,0.00,,SKC,0.00,0.00,VWS V14.01,2013-03-15 07:21:00,
2013-03-15 01:27:00,40.9,26.0,29.96,NE,36,4.0,10.0,55,0.00,,SKC,0.00,0.00,VWS V14.01,2013-03-15 07:27:00,
2013-03-15 01:30:00,41.3,25.9,30.00,WSW,246,2.0,4.0,54,0.00,,SKC,0.00,0.00,VWS V14.01,2013-03-15 07:30:00,
2013-03-15 01:33:00,40.3,25.9,29.96,NNE,12,2.0,3.0,56,0.00,,SKC,0.00,0.00,VWS V14.01,2013-03-15 07:33:00,
2013-03-15 01:39:00,39.8,25.8,29.96,NNE,12,0.0,3.0,57,0.00,,SKC,0.00,0.00,VWS V14.01,2013-03-15 07:39:00,
2013-03-15 01:45:00,39.5,25.5,29.95,NNE,12,0.0,3.0,57,0.00,,SKC,0.00,0.00,VWS V14.01,2013-03-15 07:45:00,
2013-03-15 01:52:00,39.1,25.6,29.97,NNE,12,0.0,1.0,58,0.00,,SKC,0.00,0.00,VWS V14.01,2013-03-15 07:52:00,
2013-03-15 01:58:00,38.2,25.1,29.97,NNE,12,0.0,2.0,59,0.00,,SKC,0.00,0.00,VWS V14.01,2013-03-15 07:58:00,
2013-03-15 02:00:00,41.3,25.9,29.98,South,175,1.0,10.0,54,0.00,,SKC,0.00,0.00,VWS V14.01,2013-03-15 08:00:00,
2013-03-15 02:04:00,37.7,25.1,29.96,NNE,12,1.0,1.0,60,0.00,,SKC,0.00,0.00,VWS V14.01,2013-03-15 08:04:00,
2013-03-15 02:10:00,37.3,25.1,29.96,NNE,12,0.0,1.0,61,0.00,,SKC,0.00,0.00,VWS V14.01,2013-03-15 08:10:00,
2013-03-15 02:15:00,41.9,26.0,29.94,NNE,31,0.0,9.0,53,0.00,,SKC,0.00,0.00,VWS V14.01,2013-03-15 08:15:00,
2013-03-15 02:16:00,36.9,25.1,29.96,NNE,12,0.0,1.0,62,0.00,,SKC,0.00,0.00,VWS V14.01,2013-03-15 08:16:00,
2013-03-15 02:22:00,36.4,25.0,29.98,North,11,0.0,0.0,63,0.00,,SKC,0.00,0.00,VWS V14.01,2013-03-15 08:22:00,
2013-03-15 02:28:00,35.8,24.8,29.97,NNE,12,0.0,1.0,64,0.00,,SKC,0.00,0.00,VWS V14.01,2013-03-15 08:28:00,
2013-03-15 02:30:00,40.5,26.0,29.96,NNE,12,0.0,10.0,56,0.00,,SKC,0.00,0.00,VWS V14.01,2013-03-15 08:30:00,
2013-03-15 02:34:00,35.4,24.8,29.97,North,11,0.0,0.0,65,0.00,,SKC,0.00,0.00,VWS V14.01,2013-03-15 08:34:00,
2013-03-15 02:40:00,34.7,24.9,29.97,NNE,12,0.0,2.0,67,0.00,,SKC,0.00,0.00,VWS V14.01,2013-03-15 08:40:00,
2013-03-15 02:45:00,34.4,25.0,29.98,North,11,0.0,2.0,68,0.00,,SKC,0.00,0.00,VWS V14.01,2013-03-15 08:45:00,
2013-03-15 02:52:00,34.0,24.6,29.98,NNE,12,0.0,1.0,68,0.00,,SKC,0.00,0.00,VWS V14.01,2013-03-15 08:52:00,
2013-03-15 02:58:00,33.6,24.5,29.97,North,11,1.0,1.0,69,0.00,,SKC,0.00,0.00,VWS V14.01,2013-03-15 08:58:00,
2013-03-15 03:00:00,38.0,25.4,29.97,NNE,12,0.0,2.0,60,0.00,,SKC,0.00,0.00,VWS V14.01,2013-03-15 09:00:00,
2013-03-15 03:04:00,33.2,24.5,29.97,NNE,12,0.0,0.0,70,0.00,,SKC,0.00,0.00,VWS V14.01,2013-03-15 09:04:00,
2013-03-15 03:11:00,32.9,24.5,29.97,NNE,12,0.0,1.0,71,0.00,,SKC,0.00,0.00,VWS V14.01,2013-03-15 09:11:00,
2013-03-15 03:15:00,36.9,25.1,29.96,NNE,12,0.0,1.0,62,0.00,,SKC,0.00,0.00,VWS V14.01,2013-03-15 09:15:00,
2013-03-15 03:17:00,32.6,24.6,29.96,NNE,12,1.0,1.0,72,0.00,,SKC,0.00,0.00,VWS V14.01,2013-03-15 09:17:00,
2013-03-15 03:23:00,32.4,24.4,29.97,NNE,12,0.0,1.0,72,0.00,,SKC,0.00,0.00,VWS V14.01,2013-03-15 09:23:00,
2013-03-15 03:29:00,32.1,24.4,29.97,NNE,12,0.0,1.0,73,0.00,,SKC,0.00,0.00,VWS V14.01,2013-03-15 09:29:00,
2013-03-15 03:30:00,35.6,25.0,29.97,NNE,12,0.0,1.0,65,0.00,,SKC,0.00,0.00,VWS V14.01,2013-03-15 09:30:00,
2013-03-15 03:35:00,31.9,24.6,29.97,NNE,12,0.0,0.0,74,0.00,,SKC,0.00,0.00,VWS V14.01,2013-03-15 09:35:00,
2013-03-15 03:41:00,31.8,24.5,29.97,NNE,12,0.0,1.0,74,0.00,,SKC,0.00,0.00,VWS V14.01,2013-03-15 09:41:00,
2013-03-15 03:45:00,34.4,25.0,29.98,North,11,0.0,2.0,68,0.00,,SKC,0.00,0.00,VWS V14.01,2013-03-15 09:45:00,
2013-03-15 03:47:00,31.7,24.7,29.97,NNE,12,0.0,2.0,75,0.00,,SKC,0.00,0.00,VWS V14.01,2013-03-15 09:47:00,
2013-03-15 03:54:00,31.6,24.9,29.97,North,11,0.0,2.0,76,0.00,,SKC,0.00,0.00,VWS V14.01,2013-03-15 09:54:00,
2013-03-15 04:00:00,31.5,24.8,29.96,North,11,0.0,2.0,76,0.00,,SKC,0.00,0.00,VWS V14.01,2013-03-15 10:00:00,
2013-03-15 04:06:00,31.5,24.8,29.96,NNE,12,0.0,2.0,76,0.00,,SKC,0.00,0.00,VWS V14.01,2013-03-15 10:06:00,
2013-03-15 04:12:00,31.4,24.7,29.97,NNE,12,0.0,2.0,76,0.00,,SKC,0.00,0.00,VWS V14.01,2013-03-15 10:12:00,
2013-03-15 04:15:00,32.6,24.6,29.96,NNE,12,0.0,1.0,72,0.00,,SKC,0.00,0.00,VWS V14.01,2013-03-15 10:15:00,
2013-03-15 04:18:00,31.2,24.8,29.97,NNE,12,0.0,1.0,77,0.00,,SKC,0.00,0.00,VWS V14.01,2013-03-15 10:18:00,
2013-03-15 04:24:00,31.1,24.8,29.97,North,11,0.0,1.0,77,0.00,,SKC,0.00,0.00,VWS V14.01,2013-03-15 10:24:00,
2013-03-15 04:30:00,31.0,24.6,29.97,North,11,0.0,1.0,77,0.00,,SKC,0.00,0.00,VWS V14.01,2013-03-15 10:30:00,
2013-03-15 04:36:00,31.0,24.6,29.97,NNE,12,0.0,0.0,77,0.00,,SKC,0.00,0.00,VWS V14.01,2013-03-15 10:36:00,
2013-03-15 04:42:00,30.8,24.5,29.97,North,11,0.0,2.0,77,0.00,,SKC,0.00,0.00,VWS V14.01,2013-03-15 10:42:00,
2013-03-15 04:45:00,31.7,24.7,29.97,North,11,2.0,2.0,75,0.00,,SKC,0.00,0.00,VWS V14.01,2013-03-15 10:45:00,
2013-03-15 04:48:00,30.6,24.3,29.97,North,11,0.0,1.0,77,0.00,,SKC,0.00,0.00,VWS V14.01,2013-03-15 10:48:00,
2013-03-15 04:54:00,30.2,24.2,29.97,North,11,0.0,2.0,78,0.00,,SKC,0.00,0.00,VWS V14.01,2013-03-15 10:54:00,
2013-03-15 05:00:00,29.9,23.9,29.97,NNE,12,1.0,2.0,78,0.00,,SKC,0.00,0.00,VWS V14.01,2013-03-15 11:00:00,
2013-03-15 05:06:00,29.7,24.0,30.01,North,11,0.0,0.0,79,0.00,,SKC,0.00,0.00,VWS V14.01,2013-03-15 11:06:00,
2013-03-15 05:12:00,29.4,23.4,30.02,NNE,12,3.0,3.0,78,0.00,,SKC,0.00,0.00,VWS V14.01,2013-03-15 11:12:00,
2013-03-15 05:15:00,31.3,24.6,29.97,North,11,0.0,2.0,76,0.00,,SKC,0.00,0.00,VWS V14.01,2013-03-15 11:15:00,
2013-03-15 05:18:00,29.1,23.4,30.02,NNE,12,0.0,2.0,79,0.00,,SKC,0.00,0.00,VWS V14.01,2013-03-15 11:18:00,
2013-03-15 05:24:00,28.8,23.1,30.01,NNE,12,0.0,2.0,79,0.00,,SKC,0.00,0.00,VWS V14.01,2013-03-15 11:24:00,
2013-03-15 05:30:00,28.7,23.3,30.01,NNE,12,1.0,2.0,80,0.00,,SKC,0.00,0.00,VWS V14.01,2013-03-15 11:30:00,
2013-03-15 05:36:00,28.5,23.4,30.01,NNE,12,0.0,1.0,81,0.00,,SKC,0.00,0.00,VWS V14.01,2013-03-15 11:36:00,
2013-03-15 05:42:00,28.4,23.3,30.02,NNE,12,0.0,1.0,81,0.00,,SKC,0.00,0.00,VWS V14.01,2013-03-15 11:42:00,
2013-03-15 05:45:00,30.7,24.4,29.97,NNE,12,0.0,2.0,77,0.00,,SKC,0.00,0.00,VWS V14.01,2013-03-15 11:45:00,
2013-03-15 05:48:00,28.3,23.2,30.02,NNE,12,0.0,0.0,81,0.00,,SKC,0.00,0.00,VWS V14.01,2013-03-15 11:48:00,
2013-03-15 05:54:00,28.1,23.0,30.02,NNE,12,0.0,0.0,81,0.00,,SKC,0.00,0.00,VWS V14.01,2013-03-15 11:54:00,
2013-03-15 06:00:00,27.9,22.8,30.03,NNE,12,0.0,0.0,81,0.00,,SKC,0.00,0.00,VWS V14.01,2013-03-15 12:00:00,
2013-03-15 06:07:00,27.8,23.0,30.07,NNE,12,0.0,0.0,82,0.00,,SKC,0.00,0.00,VWS V14.01,2013-03-15 12:07:00,
2013-03-15 06:13:00,27.6,23.1,30.07,NNE,12,0.0,0.0,83,0.00,,SKC,0.00,0.00,VWS V14.01,2013-03-15 12:13:00,
2013-03-15 06:15:00,29.2,23.5,30.02,NNE,12,2.0,3.0,79,0.00,,SKC,0.00,0.00,VWS V14.01,2013-03-15 12:15:00,
2013-03-15 06:19:00,27.5,23.0,30.07,North,11,0.0,0.0,83,0.00,,SKC,0.00,0.00,VWS V14.01,2013-03-15 12:19:00,
2013-03-15 06:25:00,27.4,22.9,30.07,NNE,12,0.0,0.0,83,0.00,,SKC,0.00,0.00,VWS V14.01,2013-03-15 12:25:00,
2013-03-15 06:30:00,28.7,23.3,30.01,North,11,0.0,2.0,80,0.00,,SKC,0.00,0.00,VWS V14.01,2013-03-15 12:30:00,
2013-03-15 06:31:00,27.4,22.9,30.07,North,11,0.0,0.0,83,0.00,,SKC,0.00,0.00,VWS V14.01,2013-03-15 12:31:00,
2013-03-15 06:37:00,27.3,23.1,30.07,NNE,12,0.0,0.0,84,0.00,,SKC,0.00,0.00,VWS V14.01,2013-03-15 12:37:00,
2013-03-15 06:43:00,27.2,22.7,30.07,NNE,12,0.0,0.0,83,0.00,,SKC,0.00,0.00,VWS V14.01,2013-03-15 12:43:00,
2013-03-15 06:45:00,28.3,23.2,30.02,North,11,0.0,1.0,81,0.00,,SKC,0.00,0.00,VWS V14.01,2013-03-15 12:45:00,
2013-03-15 06:49:00,27.1,22.6,30.07,NNE,12,0.0,0.0,83,0.00,,SKC,0.00,0.00,VWS V14.01,2013-03-15 12:49:00,
2013-03-15 06:56:00,26.9,22.4,30.06,NNE,12,0.0,0.0,83,0.00,,SKC,0.00,0.00,VWS V14.01,2013-03-15 12:56:00,
2013-03-15 07:00:00,27.9,22.8,30.03,North,11,0.0,0.0,81,0.00,,SKC,0.00,0.00,VWS V14.01,2013-03-15 13:00:00,
2013-03-15 07:01:00,26.7,22.5,30.06,NNE,12,1.0,2.0,84,0.00,,SKC,0.00,0.00,VWS V14.01,2013-03-15 13:01:00,
2013-03-15 07:06:00,26.6,22.4,30.10,NNE,12,0.0,1.0,84,0.00,,SKC,0.00,0.00,VWS V14.01,2013-03-15 13:06:00,
2013-03-15 07:12:00,26.5,22.6,30.10,North,11,0.0,1.0,85,0.00,,SKC,0.00,0.00,VWS V14.01,2013-03-15 13:12:00,
2013-03-15 07:15:00,27.6,23.1,30.07,NNE,12,0.0,0.0,83,0.00,,SKC,0.00,0.00,VWS V14.01,2013-03-15 13:15:00,
2013-03-15 07:18:00,26.5,22.6,30.10,North,11,0.0,0.0,85,0.00,,SKC,0.00,0.00,VWS V14.01,2013-03-15 13:18:00,
2013-03-15 07:24:00,26.4,22.5,30.10,North,11,0.0,0.0,85,0.00,,SKC,0.00,0.00,VWS V14.01,2013-03-15 13:24:00,
2013-03-15 07:30:00,27.4,22.9,30.07,NNE,12,0.0,0.0,83,0.00,,SKC,0.00,0.00,VWS V14.01,2013-03-15 13:30:00,
2013-03-15 07:31:00,26.3,22.4,30.10,NNE,12,0.0,0.0,85,0.00,,SKC,0.00,7.00,VWS V14.01,2013-03-15 13:31:00,
2013-03-15 07:37:00,26.3,22.7,30.09,NNE,12,0.0,0.0,86,0.00,,SKC,0.00,12.00,VWS V14.01,2013-03-15 13:37:00,
2013-03-15 07:43:00,26.2,22.6,30.10,NNE,12,0.0,0.0,86,0.00,,SKC,0.00,25.00,VWS V14.01,2013-03-15 13:43:00,
2013-03-15 07:45:00,27.1,22.6,30.07,NNE,12,0.0,0.0,83,0.00,,SKC,0.00,0.00,VWS V14.01,2013-03-15 13:45:00,
2013-03-15 07:49:00,26.3,22.7,30.10,North,11,0.0,2.0,86,0.00,,SKC,0.00,44.00,VWS V14.01,2013-03-15 13:49:00,
2013-03-15 07:55:00,26.4,23.1,30.09,NNE,12,0.0,2.0,87,0.00,,SKC,0.00,60.00,VWS V14.01,2013-03-15 13:55:00,
2013-03-15 08:00:00,26.7,22.5,30.06,NNE,12,1.0,2.0,84,0.00,,SKC,0.00,0.00,VWS V14.01,2013-03-15 14:00:00,
2013-03-15 08:01:00,26.6,23.3,30.09,NNE,12,0.0,2.0,87,0.00,,SKC,0.00,67.00,VWS V14.01,2013-03-15 14:01:00,
2013-03-15 08:06:00,26.7,23.6,30.06,NNE,12,0.0,1.0,88,0.00,,SKC,0.00,76.00,VWS V14.01,2013-03-15 14:06:00,
2013-03-15 08:12:00,26.9,23.8,30.06,North,11,0.0,1.0,88,0.00,,SKC,0.00,77.00,VWS V14.01,2013-03-15 14:12:00,
2013-03-15 08:15:00,26.5,22.6,30.10,NNE,12,0.0,1.0,85,0.00,,SKC,0.00,0.00,VWS V14.01,2013-03-15 14:15:00,
2013-03-15 08:18:00,27.2,24.1,30.06,NNE,12,0.0,0.0,88,0.00,,SKC,0.00,83.00,VWS V14.01,2013-03-15 14:18:00,
2013-03-15 08:24:00,27.6,24.8,30.04,NNE,12,0.0,0.0,89,0.00,,SKC,0.00,90.00,VWS V14.01,2013-03-15 14:24:00,
2013-03-15 08:30:00,27.9,25.1,30.04,North,11,0.0,0.0,89,0.00,,SKC,0.00,76.00,VWS V14.01,2013-03-15 14:30:00,
2013-03-15 08:36:00,28.3,25.5,30.04,NNE,12,0.0,1.0,89,0.00,,SKC,0.00,69.00,VWS V14.01,2013-03-15 14:36:00,
2013-03-15 08:42:00,28.7,25.9,30.04,North,11,0.0,2.0,89,0.00,,SKC,0.00,65.00,VWS V14.01,2013-03-15 14:42:00,
2013-03-15 08:45:00,26.2,22.6,30.09,North,11,0.0,0.0,86,0.00,,SKC,0.00,32.00,VWS V14.01,2013-03-15 14:45:00,
2013-03-15 08:48:00,29.0,26.2,30.04,NNE,12,0.0,0.0,89,0.00,,SKC,0.00,67.00,VWS V14.01,2013-03-15 14:48:00,
2013-03-15 08:54:00,29.4,26.6,30.04,NNE,12,0.0,2.0,89,0.00,,SKC,0.00,83.00,VWS V14.01,2013-03-15 14:54:00,
2013-03-15 09:00:00,29.8,26.7,30.03,NNE,12,0.0,2.0,88,0.00,,SKC,0.00,88.00,VWS V14.01,2013-03-15 15:00:00,
2013-03-15 09:06:00,30.2,27.1,30.05,North,11,0.0,1.0,88,0.00,,SKC,0.00,88.00,VWS V14.01,2013-03-15 15:06:00,
2013-03-15 09:12:00,30.6,27.2,30.03,NNE,12,0.0,1.0,87,0.00,,SKC,0.00,93.00,VWS V14.01,2013-03-15 15:12:00,
2013-03-15 09:15:00,27.1,24.0,30.06,North,11,0.0,1.0,88,0.00,,SKC,0.00,83.00,VWS V14.01,2013-03-15 15:15:00,
2013-03-15 09:18:00,30.9,27.5,30.03,North,11,0.0,1.0,87,0.00,,SKC,0.00,91.00,VWS V14.01,2013-03-15 15:18:00,
2013-03-15 09:24:00,31.3,27.6,30.02,North,11,0.0,3.0,86,0.00,,SKC,0.00,116.00,VWS V14.01,2013-03-15 15:24:00,
2013-03-15 09:30:00,33.0,28.4,30.00,North,11,0.0,3.0,83,0.00,,SKC,0.00,262.00,VWS V14.01,2013-03-15 15:30:00,
2013-03-15 09:36:00,35.0,28.2,29.98,North,11,1.0,2.0,76,0.00,,SKC,0.00,323.00,VWS V14.01,2013-03-15 15:36:00,
2013-03-15 09:42:00,37.6,29.1,29.96,NNE,12,0.0,2.0,71,0.00,,SKC,0.00,473.00,VWS V14.01,2013-03-15 15:42:00,
2013-03-15 09:45:00,28.9,26.1,30.04,North,11,0.0,2.0,89,0.00,,SKC,0.00,63.00,VWS V14.01,2013-03-15 15:45:00,
2013-03-15 09:48:00,40.5,29.7,29.95,NNE,13,3.0,4.0,65,0.00,,SKC,0.00,515.00,VWS V14.01,2013-03-15 15:48:00,
2013-03-15 09:54:00,42.0,28.7,29.93,NE,36,4.0,5.0,59,0.00,,SKC,0.00,598.00,VWS V14.01,2013-03-15 15:54:00,
2013-03-15 10:00:00,43.2,29.0,29.92,NE,53,6.0,10.0,57,0.00,,SKC,0.00,461.00,VWS V14.01,2013-03-15 16:00:00,
2013-03-15 10:08:00,44.1,29.0,29.91,NE,37,2.0,7.0,55,0.00,,SKC,0.00,380.00,VWS V14.01,2013-03-15 16:08:00,
2013-03-15 10:14:00,44.0,28.0,29.91,NE,49,2.0,7.0,53,0.00,,SKC,0.00,436.00,VWS V14.01,2013-03-15 16:14:00,
2013-03-15 10:15:00,30.8,27.4,30.03,North,11,0.0,1.0,87,0.00,,SKC,0.00,93.00,VWS V14.01,2013-03-15 16:15:00,
2013-03-15 10:20:00,44.3,28.3,29.91,ENE,59,4.0,6.0,53,0.00,,SKC,0.00,503.00,VWS V14.01,2013-03-15 16:20:00,
2013-03-15 10:26:00,45.0,28.5,29.91,ENE,76,4.0,7.0,52,0.00,,SKC,0.00,390.00,VWS V14.01,2013-03-15 16:26:00,
2013-03-15 10:30:00,33.2,28.6,30.00,North,11,0.0,3.0,83,0.00,,SKC,0.00,318.00,VWS V14.01,2013-03-15 16:30:00,
2013-03-15 10:32:00,45.4,27.9,29.91,NE,45,1.0,3.0,50,0.00,,SKC,0.00,302.00,VWS V14.01,2013-03-15 16:32:00,
2013-03-15 10:39:00,45.8,28.7,29.89,NE,44,2.0,5.0,51,0.00,,SKC,0.00,353.00,VWS V14.01,2013-03-15 16:39:00,
2013-03-15 10:45:00,46.3,28.2,29.89,NE,42,1.0,6.0,49,0.00,,SKC,0.00,330.00,VWS V14.01,2013-03-15 16:45:00,
2013-03-15 10:51:00,46.6,28.5,29.89,NNE,13,2.0,7.0,49,0.00,,SKC,0.00,371.00,VWS V14.01,2013-03-15 16:51:00,
2013-03-15 10:57:00,46.9,28.8,29.89,North,5,5.0,7.0,49,0.00,,SKC,0.00,417.00,VWS V14.01,2013-03-15 16:57:00,
2013-03-15 11:00:00,43.3,28.7,29.93,NNE,17,4.0,10.0,56,0.00,,SKC,0.00,461.00,VWS V14.01,2013-03-15 17:00:00,
2013-03-15 11:03:00,47.4,28.2,29.89,NNE,22,6.0,9.0,47,0.00,,SKC,0.00,476.00,VWS V14.01,2013-03-15 17:03:00,
2013-03-15 11:09:00,47.8,28.6,29.89,North,355,4.0,9.0,47,0.00,,SKC,0.00,485.00,VWS V14.01,2013-03-15 17:09:00,
2013-03-15 11:15:00,48.2,28.4,29.88,North,360,5.0,9.0,46,0.00,,SKC,0.00,432.00,VWS V14.01,2013-03-15 17:15:00,
2013-03-15 11:21:00,48.3,28.5,29.89,NNE,18,2.0,7.0,46,0.00,,SKC,0.00,513.00,VWS V14.01,2013-03-15 17:21:00,
2013-03-15 11:27:00,49.2,29.3,29.87,NNE,24,0.0,7.0,46,0.00,,SKC,0.00,568.00,VWS V14.01,2013-03-15 17:27:00,
2013-03-15 11:30:00,45.3,28.2,29.91,NE,45,0.0,7.0,51,0.00,,SKC,0.00,301.00,VWS V14.01,2013-03-15 17:30:00,
2013-03-15 11:33:00,50.6,29.0,29.85,North,360,2.0,6.0,43,0.00,,SKC,0.00,538.00,VWS V14.01,2013-03-15 17:33:00,
2013-03-15 11:39:00,51.2,28.9,29.85,NE,52,0.0,6.0,42,0.00,,SKC,0.00,357.00,VWS V14.01,2013-03-15 17:39:00,
2013-03-15 11:45:00,51.2,28.9,29.85,NNE,24,0.0,7.0,42,0.00,,SKC,0.00,445.00,VWS V14.01,2013-03-15 17:45:00,
2013-03-15 11:53:00,51.3,29.0,29.86,NNE,15,0.0,6.0,42,0.00,,SKC,0.00,369.00,VWS V14.01,2013-03-15 17:53:00,
2013-03-15 11:59:00,51.5,28.0,29.85,NE,37,1.0,6.0,40,0.00,,SKC,0.00,357.00,VWS V14.01,2013-03-15 17:59:00,
2013-03-15 12:00:00,47.2,28.5,29.88,NNE,26,3.0,8.0,48,0.00,,SKC,0.00,422.00,VWS V14.01,2013-03-15 18:00:00,
2013-03-15 12:05:00,51.8,27.6,29.86,NE,41,2.0,3.0,39,0.00,,SKC,0.00,441.00,VWS V14.01,2013-03-15 18:05:00,
2013-03-15 12:11:00,52.0,27.8,29.86,NE,42,0.0,3.0,39,0.00,,SKC,0.00,392.00,VWS V14.01,2013-03-15 18:11:00,
2013-03-15 12:15:00,48.2,28.4,29.88,NNW,346,4.0,9.0,46,0.00,,SKC,0.00,427.00,VWS V14.01,2013-03-15 18:15:00,
2013-03-15 12:17:00,52.4,28.8,29.86,NE,42,2.0,2.0,40,0.00,,SKC,0.00,371.00,VWS V14.01,2013-03-15 18:17:00,
2013-03-15 12:23:00,52.6,28.4,29.84,NE,41,2.0,2.0,39,0.00,,SKC,0.00,339.00,VWS V14.01,2013-03-15 18:23:00,
2013-03-15 12:29:00,52.9,28.0,29.84,NE,41,0.0,3.0,38,0.00,,SKC,0.00,387.00,VWS V14.01,2013-03-15 18:29:00,
2013-03-15 12:30:00,50.3,29.2,29.86,NNE,14,4.0,7.0,44,0.00,,SKC,0.00,490.00,VWS V14.01,2013-03-15 18:30:00,
2013-03-15 12:36:00,53.6,28.6,29.84,NE,41,2.0,3.0,38,0.00,,SKC,0.00,390.00,VWS V14.01,2013-03-15 18:36:00,
2013-03-15 12:42:00,54.1,29.7,29.83,North,11,3.0,5.0,39,0.00,,SKC,0.00,385.00,VWS V14.01,2013-03-15 18:42:00,
2013-03-15 12:45:00,51.2,28.9,29.85,NNE,26,3.0,7.0,42,0.00,,SKC,0.00,431.00,VWS V14.01,2013-03-15 18:45:00,
2013-03-15 12:48:00,54.7,30.2,29.81,NNE,25,0.0,2.0,39,0.00,,SKC,0.00,424.00,VWS V14.01,2013-03-15 18:48:00,
2013-03-15 12:54:00,55.4,29.6,29.81,NNE,25,0.0,4.0,37,0.00,,SKC,0.00,489.00,VWS V14.01,2013-03-15 18:54:00,
2013-03-15 13:00:00,55.8,29.3,29.81,NE,34,1.0,4.0,36,0.00,,SKC,0.00,496.00,VWS V14.01,2013-03-15 19:00:00,
2013-03-15 13:06:00,56.2,28.9,29.82,NNE,32,1.0,6.0,35,0.00,,SKC,0.00,387.00,VWS V14.01,2013-03-15 19:06:00,
2013-03-15 13:12:00,56.9,28.1,29.82,North,11,2.0,9.0,33,0.00,,SKC,0.00,765.00,VWS V14.01,2013-03-15 19:12:00,
2013-03-15 13:15:00,52.3,28.7,29.86,NE,42,0.0,3.0,40,0.00,,SKC,0.00,371.00,VWS V14.01,2013-03-15 19:15:00,
2013-03-15 13:18:00,57.4,28.5,29.81,NE,44,3.0,5.0,33,0.00,,SKC,0.00,464.00,VWS V14.01,2013-03-15 19:18:00,
2013-03-15 13:24:00,57.9,29.0,29.79,NNE,23,2.0,7.0,33,0.00,,SKC,0.00,629.00,VWS V14.01,2013-03-15 19:24:00,
2013-03-15 13:30:00,59.0,30.0,29.78,NNE,22,3.0,7.0,33,0.00,,SKC,0.00,673.00,VWS V14.01,2013-03-15 19:30:00,
2013-03-15 13:35:00,59.2,30.1,29.78,NNE,30,4.0,4.0,33,0.00,,SKC,0.00,628.00,VWS V14.01,2013-03-15 19:35:00,
2013-03-15 13:41:00,60.0,30.1,29.76,NNE,29,2.0,6.0,32,0.00,,SKC,0.00,605.00,VWS V14.01,2013-03-15 19:41:00,
2013-03-15 13:45:00,54.5,29.4,29.83,NNE,25,1.0,5.0,38,0.00,,SKC,0.00,420.00,VWS V14.01,2013-03-15 19:45:00,
2013-03-15 13:47:00,60.5,30.5,29.75,NNE,29,2.0,5.0,32,0.00,,SKC,0.00,596.00,VWS V14.01,2013-03-15 19:47:00,
2013-03-15 13:53:00,61.0,31.0,29.75,NE,48,9.0,9.0,32,0.00,,SKC,0.00,613.00,VWS V14.01,2013-03-15 19:53:00,
2013-03-15 13:59:00,61.3,30.4,29.75,NE,50,4.0,9.0,31,0.00,,SKC,0.00,784.00,VWS V14.01,2013-03-15 19:59:00,
2013-03-15 14:00:00,56.0,28.8,29.80,NE,54,3.0,4.0,35,0.00,,SKC,0.00,496.00,VWS V14.01,2013-03-15 20:00:00,
2013-03-15 14:05:00,61.2,29.5,29.77,NE,49,4.0,8.0,30,0.00,,SKC,0.00,679.00,VWS V14.01,2013-03-15 20:05:00,
2013-03-15 14:11:00,61.5,30.6,29.77,NE,46,5.0,10.0,31,0.00,,SKC,0.00,1023.00,VWS V14.01,2013-03-15 20:11:00,
2013-03-15 14:15:00,57.2,28.4,29.81,NNE,17,3.0,9.0,33,0.00,,SKC,0.00,464.00,VWS V14.01,2013-03-15 20:15:00,
2013-03-15 14:17:00,63.8,30.1,29.74,NE,38,4.0,9.0,28,0.00,,SKC,0.00,962.00,VWS V14.01,2013-03-15 20:17:00,
2013-03-15 14:23:00,65.6,27.9,29.73,NE,41,5.0,11.0,24,0.00,,SKC,0.00,1044.00,VWS V14.01,2013-03-15 20:23:00,
2013-03-15 14:29:00,66.3,28.5,29.72,SSE,152,5.0,12.0,24,0.00,,SKC,0.00,780.00,VWS V14.01,2013-03-15 20:29:00,
2013-03-15 14:30:00,59.0,30.0,29.78,NNE,18,3.0,7.0,33,0.00,,SKC,0.00,694.00,VWS V14.01,2013-03-15 20:30:00,
2013-03-15 14:36:00,65.6,27.9,29.72,SSW,195,7.0,14.0,24,0.00,,SKC,0.00,596.00,VWS V14.01,2013-03-15 20:36:00,
2013-03-15 14:42:00,64.6,28.0,29.73,SSE,161,9.0,14.0,25,0.00,,SKC,0.00,476.00,VWS V14.01,2013-03-15 20:42:00,
2013-03-15 14:45:00,60.3,30.3,29.76,NNE,13,5.0,6.0,32,0.00,,SKC,0.00,656.00,VWS V14.01,2013-03-15 20:45:00,
2013-03-15 14:48:00,63.9,27.4,29.73,South,184,10.0,13.0,25,0.00,,SKC,0.00,524.00,VWS V14.01,2013-03-15 20:48:00,
2013-03-15 14:54:00,64.0,27.5,29.72,South,186,6.0,15.0,25,0.00,,SKC,0.00,867.00,VWS V14.01,2013-03-15 20:54:00,
2013-03-15 15:00:00,64.4,26.9,29.72,SW,217,16.0,16.0,24,0.00,,SKC,0.00,946.00,VWS V14.01,2013-03-15 21:00:00,
2013-03-15 15:06:00,64.1,27.6,29.73,West,263,9.0,13.0,25,0.00,,SKC,0.00,554.00,VWS V14.01,2013-03-15 21:06:00,
2013-03-15 15:12:00,63.7,27.2,29.73,South,176,10.0,17.0,25,0.00,,SKC,0.00,791.00,VWS V14.01,2013-03-15 21:12:00,
2013-03-15 15:15:00,63.1,31.2,29.76,NW,325,3.0,12.0,30,0.00,,SKC,0.00,1046.00,VWS V14.01,2013-03-15 21:15:00,
2013-03-15 15:18:00,63.9,27.4,29.73,SSW,207,12.0,12.0,25,0.00,,SKC,0.00,784.00,VWS V14.01,2013-03-15 21:18:00,
2013-03-15 15:24:00,63.9,27.4,29.72,South,187,8.0,13.0,25,0.00,,SKC,0.00,327.00,VWS V14.01,2013-03-15 21:24:00,
2013-03-15 15:30:00,64.0,27.5,29.72,SSW,213,7.0,14.0,25,0.00,,SKC,0.00,652.00,VWS V14.01,2013-03-15 21:30:00,
2013-03-15 15:36:00,64.3,27.8,29.72,SSW,208,6.0,12.0,25,0.00,,SKC,0.00,666.00,VWS V14.01,2013-03-15 21:36:00,
2013-03-15 15:42:00,64.0,27.5,29.72,South,169,13.0,13.0,25,0.00,,SKC,0.00,649.00,VWS V14.01,2013-03-15 21:42:00,
2013-03-15 15:45:00,64.2,27.7,29.73,South,182,7.0,15.0,25,0.00,,SKC,0.00,469.00,VWS V14.01,2013-03-15 21:45:00,
2013-03-15 15:48:00,63.7,26.3,29.72,SSW,199,9.0,15.0,24,0.00,,SKC,0.00,657.00,VWS V14.01,2013-03-15 21:48:00,
2013-03-15 15:54:00,63.7,27.2,29.72,SSW,202,12.0,15.0,25,0.00,,SKC,0.00,663.00,VWS V14.01,2013-03-15 21:54:00,
2013-03-15 16:00:00,64.4,27.8,29.72,South,186,7.0,16.0,25,0.00,,SKC,0.00,788.00,VWS V14.01,2013-03-15 22:00:00,
2013-03-15 16:01:00,63.8,27.3,29.71,South,177,11.0,15.0,25,0.00,,SKC,0.00,638.00,VWS V14.01,2013-03-15 22:01:00,
2013-03-15 16:07:00,63.7,27.2,29.73,SSE,157,11.0,15.0,25,0.00,,SKC,0.00,640.00,VWS V14.01,2013-03-15 22:07:00,
2013-03-15 16:13:00,63.7,27.2,29.73,SSW,192,13.0,17.0,25,0.00,,SKC,0.00,601.00,VWS V14.01,2013-03-15 22:13:00,
2013-03-15 16:15:00,63.9,28.4,29.72,SW,214,11.0,17.0,26,0.00,,SKC,0.00,733.00,VWS V14.01,2013-03-15 22:15:00,
2013-03-15 16:19:00,63.7,27.2,29.73,SSE,161,5.0,13.0,25,0.00,,SKC,0.00,587.00,VWS V14.01,2013-03-15 22:19:00,
2013-03-15 16:25:00,64.0,27.5,29.73,SW,234,9.0,14.0,25,0.00,,SKC,0.00,353.00,VWS V14.01,2013-03-15 22:25:00,
2013-03-15 16:30:00,64.0,28.5,29.72,SE,134,5.0,14.0,26,0.00,,SKC,0.00,652.00,VWS V14.01,2013-03-15 22:30:00,
2013-03-15 16:31:00,63.5,27.1,29.73,SSW,194,5.0,14.0,25,0.00,,SKC,0.00,350.00,VWS V14.01,2013-03-15 22:31:00,
2013-03-15 16:37:00,63.3,26.9,29.74,SW,234,10.0,13.0,25,0.00,,SKC,0.00,387.00,VWS V14.01,2013-03-15 22:37:00,
2013-03-15 16:43:00,63.2,26.8,29.73,South,173,6.0,13.0,25,0.00,,SKC,0.00,406.00,VWS V14.01,2013-03-15 22:43:00,
2013-03-15 16:45:00,63.8,26.3,29.72,SW,219,9.0,16.0,24,0.00,,SKC,0.00,668.00,VWS V14.01,2013-03-15 22:45:00,
2013-03-15 16:49:00,63.1,27.7,29.74,SSW,198,12.0,14.0,26,0.00,,SKC,0.00,406.00,VWS V14.01,2013-03-15 22:49:00,
2013-03-15 16:55:00,63.0,27.6,29.73,South,176,11.0,14.0,26,0.00,,SKC,0.00,406.00,VWS V14.01,2013-03-15 22:55:00,
2013-03-15 17:00:00,63.8,27.3,29.71,South,179,11.0,15.0,25,0.00,,SKC,0.00,636.00,VWS V14.01,2013-03-15 23:00:00,
2013-03-15 17:01:00,63.0,26.6,29.73,SSW,202,11.0,14.0,25,0.00,,SKC,0.00,355.00,VWS V14.01,2013-03-15 23:01:00,
2013-03-15 17:07:00,62.9,26.6,29.74,SSW,192,4.0,13.0,25,0.00,,SKC,0.00,366.00,VWS V14.01,2013-03-15 23:07:00,
2013-03-15 17:13:00,62.9,26.6,29.74,South,180,8.0,13.0,25,0.00,,SKC,0.00,318.00,VWS V14.01,2013-03-15 23:13:00,
2013-03-15 17:15:00,63.6,27.2,29.73,SSW,207,9.0,17.0,25,0.00,,SKC,0.00,615.00,VWS V14.01,2013-03-15 23:15:00,
2013-03-15 17:19:00,62.9,26.6,29.74,SSE,155,5.0,10.0,25,0.00,,SKC,0.00,237.00,VWS V14.01,2013-03-15 23:19:00,
2013-03-15 17:25:00,62.7,26.4,29.74,SSW,200,5.0,11.0,25,0.00,,SKC,0.00,202.00,VWS V14.01,2013-03-15 23:25:00,
2013-03-15 17:30:00,63.5,27.1,29.73,SSW,194,5.0,14.0,25,0.00,,SKC,0.00,350.00,VWS V14.01,2013-03-15 23:30:00,
2013-03-15 17:31:00,62.3,27.0,29.73,SW,218,5.0,11.0,26,0.00,,SKC,0.00,229.00,VWS V14.01,2013-03-15 23:31:00,
2013-03-15 17:36:00,61.9,26.7,29.73,SSE,159,7.0,15.0,26,0.00,,SKC,0.00,153.00,VWS V14.01,2013-03-15 23:36:00,
2013-03-15 17:42:00,61.6,26.4,29.73,SW,216,7.0,15.0,26,0.00,,SKC,0.00,146.00,VWS V14.01,2013-03-15 23:42:00,
2013-03-15 17:45:00,63.2,26.8,29.73,SW,216,13.0,13.0,25,0.00,,SKC,0.00,332.00,VWS V14.01,2013-03-15 23:45:00,
2013-03-15 17:48:00,61.4,26.2,29.74,SSE,161,11.0,11.0,26,0.00,,SKC,0.00,132.00,VWS V14.01,2013-03-15 23:48:00,
2013-03-15 17:54:00,61.1,26.9,29.74,South,183,4.0,11.0,27,0.00,,SKC,0.00,114.00,VWS V14.01,2013-03-15 23:54:00,
2013-03-15 18:00:00,60.9,26.7,29.74,SW,215,6.0,11.0,27,0.00,,SKC,0.00,104.00,VWS V14.01,2013-03-16 00:00:00,
2013-03-15 18:06:00,60.7,27.4,29.74,WSW,238,5.0,10.0,28,0.00,,SKC,0.00,91.00,VWS V14.01,2013-03-16 00:06:00,
2013-03-15 18:13:00,60.5,26.4,29.74,South,186,6.0,10.0,27,0.00,,SKC,0.00,79.00,VWS V14.01,2013-03-16 00:13:00,
2013-03-15 18:15:00,62.9,26.6,29.74,South,189,10.0,13.0,25,0.00,,SKC,0.00,309.00,VWS V14.01,2013-03-16 00:15:00,
2013-03-15 18:19:00,60.3,26.2,29.76,West,275,3.0,7.0,27,0.00,,SKC,0.00,77.00,VWS V14.01,2013-03-16 00:19:00,
2013-03-15 18:25:00,60.0,26.8,29.76,South,184,3.0,7.0,28,0.00,,SKC,0.00,65.00,VWS V14.01,2013-03-16 00:25:00,
2013-03-15 18:30:00,62.3,27.0,29.73,SW,218,5.0,11.0,26,0.00,,SKC,0.00,229.00,VWS V14.01,2013-03-16 00:30:00,
2013-03-15 18:31:00,59.8,26.6,29.76,SW,233,5.0,11.0,28,0.00,,SKC,0.00,54.00,VWS V14.01,2013-03-16 00:31:00,
2013-03-15 18:37:00,59.5,27.2,29.76,SSW,203,2.0,6.0,29,0.00,,SKC,0.00,46.00,VWS V14.01,2013-03-16 00:37:00,
2013-03-15 18:43:00,59.0,26.0,29.76,SW,226,3.0,6.0,28,0.00,,SKC,0.00,35.00,VWS V14.01,2013-03-16 00:43:00,
2013-03-15 18:45:00,61.4,26.2,29.73,SW,223,7.0,15.0,26,0.00,,SKC,0.00,137.00,VWS V14.01,2013-03-16 00:45:00,
2013-03-15 18:49:00,58.9,25.9,29.76,SSW,210,3.0,6.0,28,0.00,,SKC,0.00,26.00,VWS V14.01,2013-03-16 00:49:00,
2013-03-15 18:55:00,58.2,26.1,29.77,South,176,4.0,7.0,29,0.00,,SKC,0.00,18.00,VWS V14.01,2013-03-16 00:55:00,
2013-03-15 19:00:00,60.9,26.7,29.74,WSW,251,10.0,11.0,27,0.00,,SKC,0.00,104.00,VWS V14.01,2013-03-16 01:00:00,
2013-03-15 19:01:00,57.5,27.1,29.77,South,182,4.0,11.0,31,0.00,,SKC,0.00,11.00,VWS V14.01,2013-03-16 01:01:00,
2013-03-15 19:07:00,56.7,27.2,29.77,South,174,4.0,10.0,32,0.00,,SKC,0.00,5.00,VWS V14.01,2013-03-16 01:07:00,
2013-03-15 19:13:00,56.2,27.5,29.79,South,180,3.0,10.0,33,0.00,,SKC,0.00,0.00,VWS V14.01,2013-03-16 01:13:00,
2013-03-15 19:15:00,60.4,26.3,29.76,SSW,212,7.0,10.0,27,0.00,,SKC,0.00,81.00,VWS V14.01,2013-03-16 01:15:00,
2013-03-15 19:19:00,55.4,26.8,29.79,South,178,4.0,5.0,33,0.00,,SKC,0.00,0.00,VWS V14.01,2013-03-16 01:19:00,
2013-03-15 19:25:00,54.6,26.8,29.79,SSW,194,4.0,6.0,34,0.00,,SKC,0.00,0.00,VWS V14.01,2013-03-16 01:25:00,
2013-03-15 19:30:00,59.8,26.6,29.76,SW,225,5.0,11.0,28,0.00,,SKC,0.00,54.00,VWS V14.01,2013-03-16 01:30:00,
2013-03-15 19:31:00,54.1,27.1,29.81,South,176,3.0,6.0,35,0.00,,SKC,0.00,0.00,VWS V14.01,2013-03-16 01:31:00,
2013-03-15 19:36:00,53.5,27.2,29.81,SSW,194,5.0,6.0,36,0.00,,SKC,0.00,0.00,VWS V14.01,2013-03-16 01:36:00,
2013-03-15 19:42:00,52.7,27.8,29.81,South,186,4.0,6.0,38,0.00,,SKC,0.00,0.00,VWS V14.01,2013-03-16 01:42:00,
2013-03-15 19:45:00,59.0,26.8,29.76,SSW,203,2.0,6.0,29,0.00,,SKC,0.00,30.00,VWS V14.01,2013-03-16 01:45:00,
2013-03-15 19:48:00,51.7,27.6,29.83,South,186,1.0,4.0,39,0.00,,SKC,0.00,0.00,VWS V14.01,2013-03-16 01:48:00,
2013-03-15 19:54:00,51.2,27.7,29.82,South,186,2.0,4.0,40,0.00,,SKC,0.00,0.00,VWS V14.01,2013-03-16 01:54:00,
2013-03-15 20:00:00,50.8,28.0,29.82,South,186,0.0,4.0,41,0.00,,SKC,0.00,0.00,VWS V14.01,2013-03-16 02:00:00,
2013-03-15 20:06:00,50.4,28.2,29.81,South,186,0.0,3.0,42,0.00,,SKC,0.00,0.00,VWS V14.01,2013-03-16 02:06:00,
2013-03-15 20:12:00,49.9,27.7,29.82,South,186,0.0,3.0,42,0.00,,SKC,0.00,0.00,VWS V14.01,2013-03-16 02:12:00,
2013-03-15 20:15:00,55.9,27.2,29.79,South,178,5.0,10.0,33,0.00,,SKC,0.00,0.00,VWS V14.01,2013-03-16 02:15:00,
2013-03-15 20:18:00,49.5,27.4,29.81,South,186,1.0,3.0,42,0.00,,SKC,0.00,0.00,VWS V14.01,2013-03-16 02:18:00,
2013-03-15 20:24:00,48.9,27.4,29.83,South,176,5.0,6.0,43,0.00,,SKC,0.00,0.00,VWS V14.01,2013-03-16 02:24:00,
2013-03-15 20:30:00,48.9,27.4,29.83,South,173,5.0,9.0,43,0.00,,SKC,0.00,0.00,VWS V14.01,2013-03-16 02:30:00,
2013-03-15 20:36:00,49.5,27.4,29.82,South,191,5.0,10.0,42,0.00,,SKC,0.00,0.00,VWS V14.01,2013-03-16 02:36:00,
2013-03-15 20:43:00,49.9,27.1,29.81,South,185,6.0,11.0,41,0.00,,SKC,0.00,0.00,VWS V14.01,2013-03-16 02:43:00,
2013-03-15 20:45:00,52.1,28.5,29.82,South,186,4.0,6.0,40,0.00,,SKC,0.00,0.00,VWS V14.01,2013-03-16 02:45:00,
2013-03-15 20:49:00,50.2,26.8,29.80,South,170,6.0,11.0,40,0.00,,SKC,0.00,0.00,VWS V14.01,2013-03-16 02:49:00,
2013-03-15 20:55:00,50.5,27.1,29.80,SSE,148,3.0,12.0,40,0.00,,SKC,0.00,0.00,VWS V14.01,2013-03-16 02:55:00,
2013-03-15 21:00:00,50.7,27.9,29.82,South,186,0.0,4.0,41,0.00,,SKC,0.00,0.00,VWS V14.01,2013-03-16 03:00:00,
2013-03-15 21:01:00,50.4,27.6,29.80,SSE,168,6.0,12.0,41,0.00,,SKC,0.00,0.00,VWS V14.01,2013-03-16 03:01:00,
2013-03-15 21:08:00,50.3,27.5,29.72,SSE,159,5.0,9.0,41,0.00,,SKC,0.00,0.00,VWS V14.01,2013-03-16 03:08:00,
2013-03-15 21:14:00,50.2,27.4,29.72,South,180,4.0,9.0,41,0.00,,SKC,0.00,0.00,VWS V14.01,2013-03-16 03:14:00,
2013-03-15 21:15:00,49.7,28.1,29.81,South,186,0.0,3.0,43,0.00,,SKC,0.00,0.00,VWS V14.01,2013-03-16 03:15:00,
2013-03-15 21:20:00,49.9,27.1,29.72,SSE,168,4.0,9.0,41,0.00,,SKC,0.00,0.00,VWS V14.01,2013-03-16 03:20:00,
2013-03-15 21:27:00,49.8,27.6,29.72,SSE,155,7.0,9.0,42,0.00,,SKC,0.00,0.00,VWS V14.01,2013-03-16 03:27:00,
2013-03-15 21:30:00,48.9,27.4,29.83,SSE,168,6.0,9.0,43,0.00,,SKC,0.00,0.00,VWS V14.01,2013-03-16 03:30:00,
2013-03-15 21:33:00,49.6,28.0,29.72,SE,132,1.0,6.0,43,0.00,,SKC,0.00,0.00,VWS V14.01,2013-03-16 03:33:00,
2013-03-15 21:39:00,49.3,27.8,29.72,SSE,148,6.0,9.0,43,0.00,,SKC,0.00,0.00,VWS V14.01,2013-03-16 03:39:00,
2013-03-15 21:45:00,49.2,27.7,29.72,SSE,155,8.0,13.0,43,0.00,,SKC,0.00,0.00,VWS V14.01,2013-03-16 03:45:00,
2013-03-15 21:51:00,49.1,28.1,29.72,SE,138,9.0,11.0,44,0.00,,SKC,0.00,0.00,VWS V14.01,2013-03-16 03:51:00,
2013-03-15 21:57:00,49.0,28.0,29.72,SSE,157,5.0,11.0,44,0.00,,SKC,0.00,0.00,VWS V14.01,2013-03-16 03:57:00,
2013-03-15 22:00:00,48.9,28.0,29.72,South,177,6.0,11.0,44,0.00,,SKC,0.00,0.00,VWS V14.01,2013-03-16 04:00:00,
2013-03-15 22:01:00,48.8,27.9,29.72,South,188,5.0,5.0,44,0.00,,SKC,0.00,0.00,VWS V14.01,2013-03-16 04:01:00,
2013-03-15 22:04:00,48.8,27.9,29.69,SSE,156,6.0,6.0,44,0.00,,SKC,0.00,0.00,VWS V14.01,2013-03-16 04:04:00,
2013-03-15 22:09:00,48.7,28.3,29.69,SSE,156,0.0,8.0,45,0.00,,SKC,0.00,0.00,VWS V14.01,2013-03-16 04:09:00,
2013-03-15 22:15:00,48.6,28.2,29.69,SE,130,3.0,8.0,45,0.00,,SKC,0.00,0.00,VWS V14.01,2013-03-16 04:15:00,
2013-03-15 22:21:00,48.3,28.0,29.70,SE,130,2.0,3.0,45,0.00,,SKC,0.00,0.00,VWS V14.01,2013-03-16 04:21:00,
2013-03-15 22:27:00,47.9,28.1,29.71,NE,42,1.0,4.0,46,0.00,,SKC,0.00,0.00,VWS V14.01,2013-03-16 04:27:00,
2013-03-15 22:30:00,49.6,27.5,29.72,SSE,163,6.0,10.0,42,0.00,,SKC,0.00,0.00,VWS V14.01,2013-03-16 04:30:00,
2013-03-15 22:33:00,47.5,27.8,29.71,NE,42,0.0,3.0,46,0.00,,SKC,0.00,0.00,VWS V14.01,2013-03-16 04:33:00,
2013-03-15 22:39:00,47.3,28.6,29.71,NE,42,0.0,3.0,48,0.00,,SKC,0.00,0.00,VWS V14.01,2013-03-16 04:39:00,
2013-03-15 22:45:00,46.8,28.2,29.71,NE,42,0.0,4.0,48,0.00,,SKC,0.00,0.00,VWS V14.01,2013-03-16 04:45:00,
2013-03-15 22:51:00,46.3,28.2,29.72,NE,42,0.0,0.0,49,0.00,,SKC,0.00,0.00,VWS V14.01,2013-03-16 04:51:00,
2013-03-15 22:57:00,45.8,28.7,29.72,NE,42,2.0,3.0,51,0.00,,SKC,0.00,0.00,VWS V14.01,2013-03-16 04:57:00,
2013-03-15 23:00:00,48.8,27.9,29.72,South,188,5.0,11.0,44,0.00,,SKC,0.00,0.00,VWS V14.01,2013-03-16 05:00:00,
2013-03-15 23:03:00,45.3,29.2,29.69,NE,42,2.0,2.0,53,0.00,,SKC,0.00,0.00,VWS V14.01,2013-03-16 05:03:00,
2013-03-15 23:09:00,44.9,28.4,29.69,NE,42,0.0,2.0,52,0.00,,SKC,0.00,0.00,VWS V14.01,2013-03-16 05:09:00,
2013-03-15 23:15:00,44.3,28.3,29.69,NE,42,3.0,4.0,53,0.00,,SKC,0.00,0.00,VWS V14.01,2013-03-16 05:15:00,
2013-03-15 23:21:00,44.0,28.0,29.69,SSE,162,3.0,4.0,53,0.00,,SKC,0.00,0.00,VWS V14.01,2013-03-16 05:21:00,
2013-03-15 23:27:00,43.8,27.8,29.69,SSE,163,0.0,4.0,53,0.00,,SKC,0.00,0.00,VWS V14.01,2013-03-16 05:27:00,
2013-03-15 23:30:00,47.6,28.4,29.71,NE,42,2.0,4.0,47,0.00,,SKC,0.00,0.00,VWS V14.01,2013-03-16 05:30:00,
2013-03-15 23:33:00,43.8,27.8,29.69,SSE,163,0.0,3.0,53,0.00,,SKC,0.00,0.00,VWS V14.01,2013-03-16 05:33:00,
2013-03-15 23:39:00,43.8,28.2,29.68,SSE,163,1.0,3.0,54,0.00,,SKC,0.00,0.00,VWS V14.01,2013-03-16 05:39:00,
2013-03-15 23:45:00,46.7,28.1,29.71,NE,42,0.0,4.0,48,0.00,,SKC,0.00,0.00,VWS V14.01,2013-03-16 05:45:00,
2013-03-15 23:46:00,43.8,27.8,29.68,SSE,163,0.0,3.0,53,0.00,,SKC,0.00,0.00,VWS V14.01,2013-03-16 05:46:00,
2013-03-15 23:52:00,43.8,28.2,29.68,SSE,163,0.0,1.0,54,0.00,,SKC,0.00,0.00,VWS V14.01,2013-03-16 05:52:00,
2013-03-15 23:58:00,43.8,27.8,29.68,NNE,31,1.0,4.0,53,0.00,,SKC,0.00,0.00,VWS V14.01,2013-03-16 05:58:00,